Oakland, MD

12:54 AM EST on December 18, 2017 (GMT -0500)
Oakland

Weather History for K2G4 - October, 2012

Change the Weather History Date:

Tuesday, October 23, 2012

  Actual Average (KMGW) Record (KMGW)
Temperature  
Mean Temperature 61 °F -  
Max Temperature 69 °F 63 °F 83 °F (1920)
Min Temperature 53 °F 41 °F 23 °F (1969)
Degree Days  
Heating Degree Days 4    
Growing Degree Days 11 (Base 50)    
Moisture  
Dew Point 49 °F    
Average Humidity 66    
Maximum Humidity 88    
Minimum Humidity 43    
Precipitation  
Precipitation 0.00 in - - ()
Sea Level Pressure  
Sea Level Pressure 30.16 in    
Wind  
Wind Speed 8 mph (SW)    
Max Wind Speed 14 mph    
Max Gust Speed 24 mph    
Visibility 10 miles    
Events      
Averages and records for this station are not official NWS values.
T = Trace of Precipitation, MM = Missing Value Source: NWS Daily Summary

Daily Weather History Graph

Daily Weather History Graph

Search for Another Location

Airport or City:

Trip Planner

Search our weather history database for the weather conditions in past years. The results will help you decide how hot, cold, wet, or windy it might be!

Date:

Astronomy

Oct. 23, 2012 Rise Set
Actual Time 7:36 AM EDT 6:26 PM EDT
Civil Twilight 7:08 AM EDT 6:53 PM EDT
Nautical Twilight 6:37 AM EDT 7:25 PM EDT
Astronomical Twilight 6:06 AM EDT 7:56 PM EDT
Moon 3:07 PM EDT (10/23) 1:27 AM EDT (10/23)
Length of Visible Light 11h 44m
Length of Day
10h 49m
Waxing Gibbous, 66% of the Moon is Illuminated
Oct 23
Waxing Gibbous
Oct 29
Full
Nov 6
Last Quarter
Nov 13
New
Nov 20
First Quarter

Hourly Weather History & Observations

Time (EDT) Temp. Dew Point Humidity Pressure Visibility Wind Dir Wind Speed Gust Speed Precip Events Conditions
12:15 AM 57.2 °F 48.2 °F 72% 30.18 in 10.0 mi SW 8.1 mph - N/A   Clear
12:35 AM 59.0 °F 48.2 °F 67% 30.18 in 10.0 mi SW 8.1 mph - N/A   Clear
1:15 AM 55.4 °F 48.2 °F 77% 30.16 in 10.0 mi South 6.9 mph - N/A   Clear
1:40 AM 55.4 °F 48.2 °F 77% 30.16 in 10.0 mi SSW 9.2 mph - N/A   Clear
2:00 AM 55.4 °F 48.2 °F 77% 30.16 in 10.0 mi SSW 8.1 mph - N/A   Clear
2:20 AM 55.4 °F 48.2 °F 77% 30.16 in 10.0 mi SSW 8.1 mph - N/A   Clear
2:40 AM 55.4 °F 50.0 °F 82% 30.16 in 10.0 mi SSW 9.2 mph - N/A   Clear
3:05 AM 57.2 °F 50.0 °F 77% 30.17 in 10.0 mi SW 8.1 mph - N/A   Clear
3:45 AM 55.4 °F 50.0 °F 82% 30.16 in 10.0 mi SW 9.2 mph - N/A   Clear
4:10 AM 55.4 °F 48.2 °F 77% 30.16 in 10.0 mi SSW 8.1 mph - N/A   Clear
4:30 AM 53.6 °F 50.0 °F 88% 30.16 in 10.0 mi SSW 8.1 mph - N/A   Clear
4:50 AM 53.6 °F 50.0 °F 88% 30.16 in 10.0 mi SSW 9.2 mph - N/A   Scattered Clouds
5:10 AM 55.4 °F 50.0 °F 82% 30.15 in 10.0 mi SSW 8.1 mph - N/A   Mostly Cloudy
5:35 AM 55.4 °F 50.0 °F 82% 30.16 in 10.0 mi SW 6.9 mph - N/A   Mostly Cloudy
5:55 AM 55.4 °F 50.0 °F 82% 30.16 in 10.0 mi SW 8.1 mph - N/A   Mostly Cloudy
6:15 AM 57.2 °F 50.0 °F 77% 30.16 in 10.0 mi WSW 9.2 mph - N/A   Mostly Cloudy
6:35 AM 57.2 °F 50.0 °F 77% 30.16 in 10.0 mi SW 9.2 mph - N/A   Mostly Cloudy
7:40 AM 57.2 °F 50.0 °F 77% 30.17 in 10.0 mi SW 8.1 mph - N/A   Mostly Cloudy
8:00 AM 59.0 °F 50.0 °F 72% 30.18 in 10.0 mi SW 9.2 mph - N/A   Mostly Cloudy
8:45 AM 59.0 °F 50.0 °F 72% 30.18 in 10.0 mi SW 8.1 mph - N/A   Overcast
9:05 AM 59.0 °F 50.0 °F 72% 30.18 in 10.0 mi SW 9.2 mph - N/A   Mostly Cloudy
9:25 AM 60.8 °F 50.0 °F 68% 30.18 in 10.0 mi WSW 9.2 mph - N/A   Overcast
9:50 AM 60.8 °F 50.0 °F 68% 30.18 in 10.0 mi SW 10.4 mph 16.1 mph N/A   Mostly Cloudy
10:10 AM 60.8 °F 50.0 °F 68% 30.17 in 10.0 mi SW 8.1 mph - N/A   Scattered Clouds
11:15 AM 68.0 °F 48.2 °F 49% 30.17 in 10.0 mi SW 9.2 mph 18.4 mph N/A   Clear
11:35 AM 66.2 °F 50.0 °F 56% 30.17 in 10.0 mi SW 8.1 mph - N/A   Clear
11:55 AM 64.4 °F 50.0 °F 59% 30.18 in 10.0 mi WSW 8.1 mph 18.4 mph N/A   Scattered Clouds
12:15 PM 64.4 °F 50.0 °F 59% 30.18 in 10.0 mi WSW 6.9 mph - N/A   Scattered Clouds
12:40 PM 62.6 °F 48.2 °F 59% 30.18 in 10.0 mi WSW 5.8 mph - N/A   Mostly Cloudy
1:00 PM 62.6 °F 48.2 °F 59% 30.17 in 10.0 mi WSW 5.8 mph - N/A   Mostly Cloudy
1:20 PM 64.4 °F 48.2 °F 56% 30.15 in 10.0 mi SW 8.1 mph - N/A   Scattered Clouds
1:40 PM 68.0 °F 46.4 °F 46% 30.15 in 10.0 mi WSW 9.2 mph - N/A   Clear
2:05 PM 69.8 °F 46.4 °F 43% 30.14 in 10.0 mi WSW 12.7 mph 18.4 mph N/A   Clear
2:25 PM 69.8 °F 46.4 °F 43% 30.14 in 10.0 mi West 10.4 mph 19.6 mph N/A   Scattered Clouds
2:45 PM 68.0 °F 48.2 °F 49% 30.13 in 10.0 mi West 10.4 mph 18.4 mph N/A   Scattered Clouds
3:05 PM 69.8 °F 48.2 °F 46% 30.13 in 10.0 mi WSW 11.5 mph 23.0 mph N/A   Mostly Cloudy
3:30 PM 68.0 °F 50.0 °F 52% 30.13 in 10.0 mi WSW 11.5 mph 23.0 mph N/A   Scattered Clouds
3:50 PM 68.0 °F 50.0 °F 52% 30.13 in 10.0 mi WSW 13.8 mph 24.2 mph N/A   Scattered Clouds
4:10 PM 69.8 °F 50.0 °F 49% 30.13 in 10.0 mi WSW 10.4 mph 21.9 mph N/A   Scattered Clouds
4:30 PM 68.0 °F 50.0 °F 52% 30.13 in 10.0 mi WSW 8.1 mph - N/A   Clear
4:55 PM 68.0 °F 50.0 °F 52% 30.13 in 10.0 mi WSW 8.1 mph - N/A   Clear
5:15 PM 66.2 °F 50.0 °F 56% 30.13 in 10.0 mi WSW 6.9 mph 17.3 mph N/A   Clear
5:35 PM 64.4 °F 50.0 °F 59% 30.13 in 10.0 mi WSW 6.9 mph - N/A   Clear
5:55 PM 64.4 °F 50.0 °F 59% 30.13 in 10.0 mi WSW 9.2 mph - N/A   Clear
6:20 PM 64.4 °F 50.0 °F 59% 30.13 in 10.0 mi WSW 8.1 mph - N/A   Clear
6:40 PM 62.6 °F 50.0 °F 63% 30.14 in 10.0 mi WSW 6.9 mph - N/A   Clear
7:00 PM 62.6 °F 50.0 °F 63% 30.15 in 10.0 mi SW 6.9 mph - N/A   Clear
7:20 PM 62.6 °F 50.0 °F 63% 30.15 in 10.0 mi SW 10.4 mph - N/A   Clear
8:05 PM 60.8 °F 50.0 °F 68% 30.15 in 10.0 mi SSW 8.1 mph - N/A   Clear
8:45 PM 60.8 °F 50.0 °F 68% 30.15 in 10.0 mi SW 9.2 mph - N/A   Clear
9:10 PM 60.8 °F 50.0 °F 68% 30.15 in 10.0 mi SSW 9.2 mph - N/A   Clear
9:30 PM 60.8 °F 50.0 °F 68% 30.16 in 10.0 mi SW 6.9 mph - N/A   Clear
9:50 PM 60.8 °F 50.0 °F 68% 30.16 in 10.0 mi SW 8.1 mph - N/A   Clear
10:10 PM 60.8 °F 50.0 °F 68% 30.16 in 10.0 mi WSW 6.9 mph - N/A   Clear
10:35 PM 60.8 °F 50.0 °F 68% 30.16 in 10.0 mi WSW 8.1 mph - N/A   Clear
10:55 PM 59.0 °F 50.0 °F 72% 30.16 in 10.0 mi WSW 5.8 mph - N/A   Clear
11:15 PM 59.0 °F 50.0 °F 72% 30.16 in 10.0 mi SW 6.9 mph - N/A   Clear
11:35 PM 59.0 °F 50.0 °F 72% 30.16 in 10.0 mi WSW 6.9 mph - N/A   Clear